<?xml version="1.0" encoding="UTF-8" standalone="no" ?>
<gpx xmlns="http://www.topografix.com/GPX/1/1" xmlns:xsi="http://www.w3.org/2001/XMLSchema-instance" xsi:schemaLocation="http://www.topografix.com/GPX/1/1 http://www.topografix.com/GPX/1/1/gpx.xsd" version="1.1" creator="VisuGPX - https://www.visugpx.com">
  <metadata>
    <name>Etape 6: Plateau de Beille - Auzat</name>
    <desc><![CDATA[Rejoignez la Transpyr\'avecmoi !!!]]></desc>
  </metadata>
  <trk>
    <name><![CDATA[Etape6_Plateau de Beille-Auzat]]></name>
    <trkseg>
      <trkpt lat="42.72333" lon="1.68953">
        <ele>1780</ele>
        <time>2013-11-09T17:43:38Z</time>
      </trkpt>
      <trkpt lat="42.7221" lon="1.68857">
        <ele>1773</ele>
        <time>2013-11-09T17:43:38Z</time>
      </trkpt>
      <trkpt lat="42.72003" lon="1.68847">
        <ele>1763</ele>
        <time>2013-11-09T17:43:38Z</time>
      </trkpt>
      <trkpt lat="42.71772" lon="1.68875">
        <ele>1751</ele>
        <time>2013-11-09T17:43:38Z</time>
      </trkpt>
      <trkpt lat="42.71765" lon="1.68817">
        <ele>1730</ele>
        <time>2013-11-09T17:43:38Z</time>
      </trkpt>
      <trkpt lat="42.71698" lon="1.68698">
        <ele>1719</ele>
        <time>2013-11-09T17:43:38Z</time>
      </trkpt>
      <trkpt lat="42.71612" lon="1.68627">
        <ele>1721</ele>
        <time>2013-11-09T17:43:38Z</time>
      </trkpt>
      <trkpt lat="42.71497" lon="1.6862">
        <ele>1721</ele>
        <time>2013-11-09T17:43:38Z</time>
      </trkpt>
      <trkpt lat="42.7129" lon="1.68478">
        <ele>1697</ele>
        <time>2013-11-09T17:43:38Z</time>
      </trkpt>
      <trkpt lat="42.71208" lon="1.68332">
        <ele>1693</ele>
        <time>2013-11-09T17:43:38Z</time>
      </trkpt>
      <trkpt lat="42.71027" lon="1.6834">
        <ele>1681</ele>
        <time>2013-11-09T17:43:38Z</time>
      </trkpt>
      <trkpt lat="42.70872" lon="1.68245">
        <ele>1633</ele>
        <time>2013-11-09T17:43:38Z</time>
      </trkpt>
      <trkpt lat="42.7085" lon="1.68133">
        <ele>1570</ele>
        <time>2013-11-09T17:43:38Z</time>
      </trkpt>
      <trkpt lat="42.7079" lon="1.68065">
        <ele>1520</ele>
        <time>2013-11-09T17:43:38Z</time>
      </trkpt>
      <trkpt lat="42.7091" lon="1.67928">
        <ele>1457</ele>
        <time>2013-11-09T17:43:38Z</time>
      </trkpt>
      <trkpt lat="42.70812" lon="1.6783">
        <ele>1397</ele>
        <time>2013-11-09T17:43:38Z</time>
      </trkpt>
      <trkpt lat="42.71128" lon="1.6747">
        <ele>1269</ele>
        <time>2013-11-09T17:43:38Z</time>
      </trkpt>
      <trkpt lat="42.71488" lon="1.67375">
        <ele>1203</ele>
        <time>2013-11-09T17:43:38Z</time>
      </trkpt>
      <trkpt lat="42.71507" lon="1.67218">
        <ele>1144</ele>
        <time>2013-11-09T17:43:38Z</time>
      </trkpt>
      <trkpt lat="42.71552" lon="1.67193">
        <ele>1127</ele>
        <time>2013-11-09T17:43:38Z</time>
      </trkpt>
      <trkpt lat="42.71565" lon="1.66858">
        <ele>1077</ele>
        <time>2013-11-09T17:43:38Z</time>
      </trkpt>
      <trkpt lat="42.71405" lon="1.66585">
        <ele>1044</ele>
        <time>2013-11-09T17:43:38Z</time>
      </trkpt>
      <trkpt lat="42.71458" lon="1.66553">
        <ele>1047</ele>
        <time>2013-11-09T17:43:38Z</time>
      </trkpt>
      <trkpt lat="42.71393" lon="1.6642">
        <ele>1080</ele>
        <time>2013-11-09T17:43:38Z</time>
      </trkpt>
      <trkpt lat="42.71298" lon="1.66437">
        <ele>1066</ele>
        <time>2013-11-09T17:43:38Z</time>
      </trkpt>
      <trkpt lat="42.71282" lon="1.66328">
        <ele>1110</ele>
        <time>2013-11-09T17:43:38Z</time>
      </trkpt>
      <trkpt lat="42.71268" lon="1.66243">
        <ele>1151</ele>
        <time>2013-11-09T17:43:38Z</time>
      </trkpt>
      <trkpt lat="42.71228" lon="1.66247">
        <ele>1138</ele>
        <time>2013-11-09T17:43:38Z</time>
      </trkpt>
      <trkpt lat="42.71187" lon="1.66128">
        <ele>1180</ele>
        <time>2013-11-09T17:43:38Z</time>
      </trkpt>
      <trkpt lat="42.71178" lon="1.66032">
        <ele>1215</ele>
        <time>2013-11-09T17:43:38Z</time>
      </trkpt>
      <trkpt lat="42.7119" lon="1.65967">
        <ele>1248</ele>
        <time>2013-11-09T17:43:38Z</time>
      </trkpt>
      <trkpt lat="42.71097" lon="1.65917">
        <ele>1274</ele>
        <time>2013-11-09T17:43:38Z</time>
      </trkpt>
      <trkpt lat="42.7103" lon="1.65943">
        <ele>1287</ele>
        <time>2013-11-09T17:43:38Z</time>
      </trkpt>
      <trkpt lat="42.70987" lon="1.65903">
        <ele>1313</ele>
        <time>2013-11-09T17:43:38Z</time>
      </trkpt>
      <trkpt lat="42.71078" lon="1.65798">
        <ele>1316</ele>
        <time>2013-11-09T17:43:38Z</time>
      </trkpt>
      <trkpt lat="42.7113" lon="1.65258">
        <ele>1439</ele>
        <time>2013-11-09T17:43:38Z</time>
      </trkpt>
      <trkpt lat="42.71247" lon="1.65107">
        <ele>1477</ele>
        <time>2013-11-09T17:43:38Z</time>
      </trkpt>
      <trkpt lat="42.71195" lon="1.64945">
        <ele>1489</ele>
        <time>2013-11-09T17:43:38Z</time>
      </trkpt>
      <trkpt lat="42.7107" lon="1.64743">
        <ele>1506</ele>
        <time>2013-11-09T17:43:38Z</time>
      </trkpt>
      <trkpt lat="42.70772" lon="1.64478">
        <ele>1556</ele>
        <time>2013-11-09T17:43:38Z</time>
      </trkpt>
      <trkpt lat="42.70782" lon="1.64443">
        <ele>1566</ele>
        <time>2013-11-09T17:43:38Z</time>
      </trkpt>
      <trkpt lat="42.70867" lon="1.64495">
        <ele>1562</ele>
        <time>2013-11-09T17:43:38Z</time>
      </trkpt>
      <trkpt lat="42.7109" lon="1.64477">
        <ele>1623</ele>
        <time>2013-11-09T17:43:38Z</time>
      </trkpt>
      <trkpt lat="42.71252" lon="1.64557">
        <ele>1619</ele>
        <time>2013-11-09T17:43:38Z</time>
      </trkpt>
      <trkpt lat="42.71363" lon="1.64517">
        <ele>1636</ele>
        <time>2013-11-09T17:43:38Z</time>
      </trkpt>
      <trkpt lat="42.7146" lon="1.64563">
        <ele>1669</ele>
        <time>2013-11-09T17:43:38Z</time>
      </trkpt>
      <trkpt lat="42.71553" lon="1.64693">
        <ele>1679</ele>
        <time>2013-11-09T17:43:38Z</time>
      </trkpt>
      <trkpt lat="42.71698" lon="1.64738">
        <ele>1671</ele>
        <time>2013-11-09T17:43:38Z</time>
      </trkpt>
      <trkpt lat="42.71792" lon="1.64657">
        <ele>1687</ele>
        <time>2013-11-09T17:43:38Z</time>
      </trkpt>
      <trkpt lat="42.71902" lon="1.64665">
        <ele>1695</ele>
        <time>2013-11-09T17:43:38Z</time>
      </trkpt>
      <trkpt lat="42.71992" lon="1.64513">
        <ele>1670</ele>
        <time>2013-11-09T17:43:38Z</time>
      </trkpt>
      <trkpt lat="42.72077" lon="1.64332">
        <ele>1608</ele>
        <time>2013-11-09T17:43:38Z</time>
      </trkpt>
      <trkpt lat="42.72302" lon="1.64253">
        <ele>1499</ele>
        <time>2013-11-09T17:43:38Z</time>
      </trkpt>
      <trkpt lat="42.72333" lon="1.64187">
        <ele>1460</ele>
        <time>2013-11-09T17:43:38Z</time>
      </trkpt>
      <trkpt lat="42.72383" lon="1.6418">
        <ele>1436</ele>
        <time>2013-11-09T17:43:38Z</time>
      </trkpt>
      <trkpt lat="42.72375" lon="1.64097">
        <ele>1402</ele>
        <time>2013-11-09T17:43:38Z</time>
      </trkpt>
      <trkpt lat="42.72423" lon="1.64083">
        <ele>1377</ele>
        <time>2013-11-09T17:43:38Z</time>
      </trkpt>
      <trkpt lat="42.72383" lon="1.63993">
        <ele>1368</ele>
        <time>2013-11-09T17:43:38Z</time>
      </trkpt>
      <trkpt lat="42.72408" lon="1.63758">
        <ele>1377</ele>
        <time>2013-11-09T17:43:38Z</time>
      </trkpt>
      <trkpt lat="42.72377" lon="1.63568">
        <ele>1385</ele>
        <time>2013-11-09T17:43:38Z</time>
      </trkpt>
      <trkpt lat="42.72297" lon="1.63335">
        <ele>1415</ele>
        <time>2013-11-09T17:43:38Z</time>
      </trkpt>
      <trkpt lat="42.72153" lon="1.63103">
        <ele>1466</ele>
        <time>2013-11-09T17:43:38Z</time>
      </trkpt>
      <trkpt lat="42.72175" lon="1.63018">
        <ele>1482</ele>
        <time>2013-11-09T17:43:38Z</time>
      </trkpt>
      <trkpt lat="42.72173" lon="1.62928">
        <ele>1499</ele>
        <time>2013-11-09T17:43:38Z</time>
      </trkpt>
      <trkpt lat="42.72292" lon="1.62863">
        <ele>1541</ele>
        <time>2013-11-09T17:43:38Z</time>
      </trkpt>
      <trkpt lat="42.72427" lon="1.6259">
        <ele>1568</ele>
        <time>2013-11-09T17:43:38Z</time>
      </trkpt>
      <trkpt lat="42.72648" lon="1.62642">
        <ele>1637</ele>
        <time>2013-11-09T17:43:38Z</time>
      </trkpt>
      <trkpt lat="42.72712" lon="1.62575">
        <ele>1656</ele>
        <time>2013-11-09T17:43:38Z</time>
      </trkpt>
      <trkpt lat="42.72755" lon="1.62747">
        <ele>1711</ele>
        <time>2013-11-09T17:43:38Z</time>
      </trkpt>
      <trkpt lat="42.72827" lon="1.62685">
        <ele>1721</ele>
        <time>2013-11-09T17:43:38Z</time>
      </trkpt>
      <trkpt lat="42.72847" lon="1.62818">
        <ele>1746</ele>
        <time>2013-11-09T17:43:38Z</time>
      </trkpt>
      <trkpt lat="42.72938" lon="1.6281">
        <ele>1768</ele>
        <time>2013-11-09T17:43:38Z</time>
      </trkpt>
      <trkpt lat="42.73072" lon="1.62968">
        <ele>1788</ele>
        <time>2013-11-09T17:43:38Z</time>
      </trkpt>
      <trkpt lat="42.73223" lon="1.62788">
        <ele>1803</ele>
        <time>2013-11-09T17:43:38Z</time>
      </trkpt>
      <trkpt lat="42.73323" lon="1.62432">
        <ele>1848</ele>
        <time>2013-11-09T17:43:38Z</time>
      </trkpt>
      <trkpt lat="42.73413" lon="1.62002">
        <ele>1888</ele>
        <time>2013-11-09T17:43:38Z</time>
      </trkpt>
      <trkpt lat="42.73802" lon="1.61662">
        <ele>1835</ele>
        <time>2013-11-09T17:43:38Z</time>
      </trkpt>
      <trkpt lat="42.74103" lon="1.616">
        <ele>1805</ele>
        <time>2013-11-09T17:43:38Z</time>
      </trkpt>
      <trkpt lat="42.74303" lon="1.6162">
        <ele>1795</ele>
        <time>2013-11-09T17:43:38Z</time>
      </trkpt>
      <trkpt lat="42.74562" lon="1.61463">
        <ele>1819</ele>
        <time>2013-11-09T17:43:38Z</time>
      </trkpt>
      <trkpt lat="42.74832" lon="1.6126">
        <ele>1891</ele>
        <time>2013-11-09T17:43:38Z</time>
      </trkpt>
      <trkpt lat="42.74928" lon="1.613">
        <ele>1879</ele>
        <time>2013-11-09T17:43:38Z</time>
      </trkpt>
      <trkpt lat="42.75107" lon="1.61058">
        <ele>1858</ele>
        <time>2013-11-09T17:43:38Z</time>
      </trkpt>
      <trkpt lat="42.75312" lon="1.60658">
        <ele>1754</ele>
        <time>2013-11-09T17:43:38Z</time>
      </trkpt>
      <trkpt lat="42.75445" lon="1.60235">
        <ele>1685</ele>
        <time>2013-11-09T17:43:38Z</time>
      </trkpt>
      <trkpt lat="42.75473" lon="1.60002">
        <ele>1667</ele>
        <time>2013-11-09T17:43:38Z</time>
      </trkpt>
      <trkpt lat="42.75542" lon="1.59882">
        <ele>1676</ele>
        <time>2013-11-09T17:43:38Z</time>
      </trkpt>
      <trkpt lat="42.75642" lon="1.59562">
        <ele>1628</ele>
        <time>2013-11-09T17:43:38Z</time>
      </trkpt>
      <trkpt lat="42.75793" lon="1.59367">
        <ele>1609</ele>
        <time>2013-11-09T17:43:38Z</time>
      </trkpt>
      <trkpt lat="42.75722" lon="1.59008">
        <ele>1557</ele>
        <time>2013-11-09T17:43:38Z</time>
      </trkpt>
      <trkpt lat="42.75698" lon="1.58828">
        <ele>1508</ele>
        <time>2013-11-09T17:43:38Z</time>
      </trkpt>
      <trkpt lat="42.75755" lon="1.58665">
        <ele>1453</ele>
        <time>2013-11-09T17:43:38Z</time>
      </trkpt>
      <trkpt lat="42.75815" lon="1.58647">
        <ele>1427</ele>
        <time>2013-11-09T17:43:38Z</time>
      </trkpt>
      <trkpt lat="42.75893" lon="1.58777">
        <ele>1415</ele>
        <time>2013-11-09T17:43:38Z</time>
      </trkpt>
      <trkpt lat="42.7595" lon="1.58858">
        <ele>1440</ele>
        <time>2013-11-09T17:43:38Z</time>
      </trkpt>
      <trkpt lat="42.76105" lon="1.58863">
        <ele>1442</ele>
        <time>2013-11-09T17:43:38Z</time>
      </trkpt>
      <trkpt lat="42.76188" lon="1.58815">
        <ele>1411</ele>
        <time>2013-11-09T17:43:38Z</time>
      </trkpt>
      <trkpt lat="42.76393" lon="1.58883">
        <ele>1386</ele>
        <time>2013-11-09T17:43:38Z</time>
      </trkpt>
      <trkpt lat="42.76472" lon="1.59017">
        <ele>1394</ele>
        <time>2013-11-09T17:43:38Z</time>
      </trkpt>
      <trkpt lat="42.76512" lon="1.58762">
        <ele>1355</ele>
        <time>2013-11-09T17:43:38Z</time>
      </trkpt>
      <trkpt lat="42.76478" lon="1.58713">
        <ele>1337</ele>
        <time>2013-11-09T17:43:38Z</time>
      </trkpt>
      <trkpt lat="42.76483" lon="1.58345">
        <ele>1254</ele>
        <time>2013-11-09T17:43:38Z</time>
      </trkpt>
      <trkpt lat="42.76538" lon="1.5792">
        <ele>1162</ele>
        <time>2013-11-09T17:43:38Z</time>
      </trkpt>
      <trkpt lat="42.76638" lon="1.5787">
        <ele>1159</ele>
        <time>2013-11-09T17:43:38Z</time>
      </trkpt>
      <trkpt lat="42.76657" lon="1.57775">
        <ele>1127</ele>
        <time>2013-11-09T17:43:38Z</time>
      </trkpt>
      <trkpt lat="42.76607" lon="1.5775">
        <ele>1115</ele>
        <time>2013-11-09T17:43:38Z</time>
      </trkpt>
      <trkpt lat="42.76625" lon="1.5758">
        <ele>1051</ele>
        <time>2013-11-09T17:43:38Z</time>
      </trkpt>
      <trkpt lat="42.76702" lon="1.575">
        <ele>1034</ele>
        <time>2013-11-09T17:43:38Z</time>
      </trkpt>
      <trkpt lat="42.76642" lon="1.57337">
        <ele>973</ele>
        <time>2013-11-09T17:43:38Z</time>
      </trkpt>
      <trkpt lat="42.76672" lon="1.57302">
        <ele>968</ele>
        <time>2013-11-09T17:43:38Z</time>
      </trkpt>
      <trkpt lat="42.76653" lon="1.5722">
        <ele>952</ele>
        <time>2013-11-09T17:43:38Z</time>
      </trkpt>
      <trkpt lat="42.76503" lon="1.57143">
        <ele>919</ele>
        <time>2013-11-09T17:43:38Z</time>
      </trkpt>
      <trkpt lat="42.76375" lon="1.57118">
        <ele>896</ele>
        <time>2013-11-09T17:43:38Z</time>
      </trkpt>
      <trkpt lat="42.76377" lon="1.5705">
        <ele>873</ele>
        <time>2013-11-09T17:43:38Z</time>
      </trkpt>
      <trkpt lat="42.76325" lon="1.57082">
        <ele>874</ele>
        <time>2013-11-09T17:43:38Z</time>
      </trkpt>
      <trkpt lat="42.76217" lon="1.57003">
        <ele>833</ele>
        <time>2013-11-09T17:43:38Z</time>
      </trkpt>
      <trkpt lat="42.76297" lon="1.56917">
        <ele>820</ele>
        <time>2013-11-09T17:43:38Z</time>
      </trkpt>
      <trkpt lat="42.76365" lon="1.56768">
        <ele>790</ele>
        <time>2013-11-09T17:43:38Z</time>
      </trkpt>
      <trkpt lat="42.76372" lon="1.56675">
        <ele>765</ele>
        <time>2013-11-09T17:43:38Z</time>
      </trkpt>
      <trkpt lat="42.76405" lon="1.56603">
        <ele>756</ele>
        <time>2013-11-09T17:43:38Z</time>
      </trkpt>
      <trkpt lat="42.76407" lon="1.5658">
        <ele>754</ele>
        <time>2013-11-09T17:43:38Z</time>
      </trkpt>
      <trkpt lat="42.76505" lon="1.56548">
        <ele>746</ele>
        <time>2013-11-09T17:43:38Z</time>
      </trkpt>
      <trkpt lat="42.7651" lon="1.56488">
        <ele>743</ele>
        <time>2013-11-09T17:43:38Z</time>
      </trkpt>
      <trkpt lat="42.76467" lon="1.56432">
        <ele>743</ele>
        <time>2013-11-09T17:43:38Z</time>
      </trkpt>
      <trkpt lat="42.76448" lon="1.56303">
        <ele>737</ele>
        <time>2013-11-09T17:43:38Z</time>
      </trkpt>
      <trkpt lat="42.76417" lon="1.56235">
        <ele>736</ele>
        <time>2013-11-09T17:43:38Z</time>
      </trkpt>
      <trkpt lat="42.76493" lon="1.5618">
        <ele>734</ele>
        <time>2013-11-09T17:43:38Z</time>
      </trkpt>
      <trkpt lat="42.76537" lon="1.56128">
        <ele>737</ele>
        <time>2013-11-09T17:43:38Z</time>
      </trkpt>
      <trkpt lat="42.76565" lon="1.56033">
        <ele>745</ele>
        <time>2013-11-09T17:43:38Z</time>
      </trkpt>
      <trkpt lat="42.76625" lon="1.55928">
        <ele>755</ele>
        <time>2013-11-09T17:43:38Z</time>
      </trkpt>
      <trkpt lat="42.76677" lon="1.55892">
        <ele>766</ele>
        <time>2013-11-09T17:43:38Z</time>
      </trkpt>
      <trkpt lat="42.76695" lon="1.55763">
        <ele>790</ele>
        <time>2013-11-09T17:43:38Z</time>
      </trkpt>
      <trkpt lat="42.76717" lon="1.55643">
        <ele>813</ele>
        <time>2013-11-09T17:43:38Z</time>
      </trkpt>
      <trkpt lat="42.76722" lon="1.5549">
        <ele>847</ele>
        <time>2013-11-09T17:43:38Z</time>
      </trkpt>
      <trkpt lat="42.76728" lon="1.55455">
        <ele>861</ele>
        <time>2013-11-09T17:43:38Z</time>
      </trkpt>
      <trkpt lat="42.7667" lon="1.55437">
        <ele>851</ele>
        <time>2013-11-09T17:43:38Z</time>
      </trkpt>
      <trkpt lat="42.76675" lon="1.55363">
        <ele>870</ele>
        <time>2013-11-09T17:43:38Z</time>
      </trkpt>
      <trkpt lat="42.76623" lon="1.55397">
        <ele>872</ele>
        <time>2013-11-09T17:43:38Z</time>
      </trkpt>
      <trkpt lat="42.7664" lon="1.55322">
        <ele>884</ele>
        <time>2013-11-09T17:43:38Z</time>
      </trkpt>
      <trkpt lat="42.76625" lon="1.55325">
        <ele>889</ele>
        <time>2013-11-09T17:43:38Z</time>
      </trkpt>
      <trkpt lat="42.76625" lon="1.5522">
        <ele>919</ele>
        <time>2013-11-09T17:43:38Z</time>
      </trkpt>
      <trkpt lat="42.76548" lon="1.55267">
        <ele>936</ele>
        <time>2013-11-09T17:43:38Z</time>
      </trkpt>
      <trkpt lat="42.7657" lon="1.5494">
        <ele>1010</ele>
        <time>2013-11-09T17:43:38Z</time>
      </trkpt>
      <trkpt lat="42.76543" lon="1.54907">
        <ele>1023</ele>
        <time>2013-11-09T17:43:38Z</time>
      </trkpt>
      <trkpt lat="42.76545" lon="1.54815">
        <ele>1041</ele>
        <time>2013-11-09T17:43:38Z</time>
      </trkpt>
      <trkpt lat="42.76587" lon="1.54768">
        <ele>1048</ele>
        <time>2013-11-09T17:43:38Z</time>
      </trkpt>
      <trkpt lat="42.76668" lon="1.54738">
        <ele>1056</ele>
        <time>2013-11-09T17:43:38Z</time>
      </trkpt>
      <trkpt lat="42.7674" lon="1.5473">
        <ele>1063</ele>
        <time>2013-11-09T17:43:38Z</time>
      </trkpt>
      <trkpt lat="42.769" lon="1.54765">
        <ele>1083</ele>
        <time>2013-11-09T17:43:38Z</time>
      </trkpt>
      <trkpt lat="42.76992" lon="1.5482">
        <ele>1108</ele>
        <time>2013-11-09T17:43:38Z</time>
      </trkpt>
      <trkpt lat="42.77108" lon="1.55148">
        <ele>1139</ele>
        <time>2013-11-09T17:43:38Z</time>
      </trkpt>
      <trkpt lat="42.7707" lon="1.54767">
        <ele>1150</ele>
        <time>2013-11-09T17:43:38Z</time>
      </trkpt>
      <trkpt lat="42.77037" lon="1.5465">
        <ele>1147</ele>
        <time>2013-11-09T17:43:38Z</time>
      </trkpt>
      <trkpt lat="42.76998" lon="1.54623">
        <ele>1135</ele>
        <time>2013-11-09T17:43:38Z</time>
      </trkpt>
      <trkpt lat="42.77002" lon="1.5456">
        <ele>1147</ele>
        <time>2013-11-09T17:43:38Z</time>
      </trkpt>
      <trkpt lat="42.77038" lon="1.54505">
        <ele>1171</ele>
        <time>2013-11-09T17:43:38Z</time>
      </trkpt>
      <trkpt lat="42.7708" lon="1.54513">
        <ele>1185</ele>
        <time>2013-11-09T17:43:38Z</time>
      </trkpt>
      <trkpt lat="42.7709" lon="1.54433">
        <ele>1197</ele>
        <time>2013-11-09T17:43:38Z</time>
      </trkpt>
      <trkpt lat="42.7707" lon="1.54342">
        <ele>1207</ele>
        <time>2013-11-09T17:43:38Z</time>
      </trkpt>
      <trkpt lat="42.76997" lon="1.54312">
        <ele>1203</ele>
        <time>2013-11-09T17:43:38Z</time>
      </trkpt>
      <trkpt lat="42.77002" lon="1.54255">
        <ele>1220</ele>
        <time>2013-11-09T17:43:38Z</time>
      </trkpt>
      <trkpt lat="42.7706" lon="1.54212">
        <ele>1243</ele>
        <time>2013-11-09T17:43:38Z</time>
      </trkpt>
      <trkpt lat="42.77153" lon="1.54213">
        <ele>1263</ele>
        <time>2013-11-09T17:43:38Z</time>
      </trkpt>
      <trkpt lat="42.77217" lon="1.54217">
        <ele>1278</ele>
        <time>2013-11-09T17:43:38Z</time>
      </trkpt>
      <trkpt lat="42.77265" lon="1.54285">
        <ele>1289</ele>
        <time>2013-11-09T17:43:38Z</time>
      </trkpt>
      <trkpt lat="42.77277" lon="1.54213">
        <ele>1285</ele>
        <time>2013-11-09T17:43:38Z</time>
      </trkpt>
      <trkpt lat="42.7732" lon="1.54208">
        <ele>1282</ele>
        <time>2013-11-09T17:43:38Z</time>
      </trkpt>
      <trkpt lat="42.7731" lon="1.54172">
        <ele>1272</ele>
        <time>2013-11-09T17:43:38Z</time>
      </trkpt>
      <trkpt lat="42.77198" lon="1.54095">
        <ele>1289</ele>
        <time>2013-11-09T17:43:38Z</time>
      </trkpt>
      <trkpt lat="42.77178" lon="1.54038">
        <ele>1297</ele>
        <time>2013-11-09T17:43:38Z</time>
      </trkpt>
      <trkpt lat="42.77187" lon="1.53972">
        <ele>1288</ele>
        <time>2013-11-09T17:43:38Z</time>
      </trkpt>
      <trkpt lat="42.77187" lon="1.53972">
        <ele>1288</ele>
        <time>2013-11-09T17:43:38Z</time>
      </trkpt>
      <trkpt lat="42.77113" lon="1.53958">
        <ele>1307</ele>
        <time>2013-11-09T17:43:38Z</time>
      </trkpt>
      <trkpt lat="42.76868" lon="1.54067">
        <ele>1309</ele>
        <time>2013-11-09T17:43:38Z</time>
      </trkpt>
      <trkpt lat="42.76647" lon="1.54018">
        <ele>1362</ele>
        <time>2013-11-09T17:43:38Z</time>
      </trkpt>
      <trkpt lat="42.76572" lon="1.53903">
        <ele>1409</ele>
        <time>2013-11-09T17:43:38Z</time>
      </trkpt>
      <trkpt lat="42.76488" lon="1.53563">
        <ele>1525</ele>
        <time>2013-11-09T17:43:38Z</time>
      </trkpt>
      <trkpt lat="42.76387" lon="1.53385">
        <ele>1569</ele>
        <time>2013-11-09T17:43:38Z</time>
      </trkpt>
      <trkpt lat="42.76288" lon="1.53293">
        <ele>1561</ele>
        <time>2013-11-09T17:43:38Z</time>
      </trkpt>
      <trkpt lat="42.76193" lon="1.53315">
        <ele>1553</ele>
        <time>2013-11-09T17:43:38Z</time>
      </trkpt>
      <trkpt lat="42.75945" lon="1.53048">
        <ele>1497</ele>
        <time>2013-11-09T17:43:38Z</time>
      </trkpt>
      <trkpt lat="42.75873" lon="1.53045">
        <ele>1521</ele>
        <time>2013-11-09T17:43:38Z</time>
      </trkpt>
      <trkpt lat="42.75793" lon="1.53088">
        <ele>1546</ele>
        <time>2013-11-09T17:43:38Z</time>
      </trkpt>
      <trkpt lat="42.7557" lon="1.52972">
        <ele>1495</ele>
        <time>2013-11-09T17:43:38Z</time>
      </trkpt>
      <trkpt lat="42.7545" lon="1.53035">
        <ele>1532</ele>
        <time>2013-11-09T17:43:38Z</time>
      </trkpt>
      <trkpt lat="42.75373" lon="1.53245">
        <ele>1530</ele>
        <time>2013-11-09T17:43:38Z</time>
      </trkpt>
      <trkpt lat="42.75202" lon="1.53083">
        <ele>1488</ele>
        <time>2013-11-09T17:43:38Z</time>
      </trkpt>
      <trkpt lat="42.75102" lon="1.52923">
        <ele>1467</ele>
        <time>2013-11-09T17:43:38Z</time>
      </trkpt>
      <trkpt lat="42.75015" lon="1.5285">
        <ele>1468</ele>
        <time>2013-11-09T17:43:38Z</time>
      </trkpt>
      <trkpt lat="42.74742" lon="1.52825">
        <ele>1478</ele>
        <time>2013-11-09T17:43:38Z</time>
      </trkpt>
      <trkpt lat="42.74732" lon="1.5278">
        <ele>1467</ele>
        <time>2013-11-09T17:43:38Z</time>
      </trkpt>
      <trkpt lat="42.74808" lon="1.5263">
        <ele>1419</ele>
        <time>2013-11-09T17:43:38Z</time>
      </trkpt>
      <trkpt lat="42.74805" lon="1.52595">
        <ele>1425</ele>
        <time>2013-11-09T17:43:38Z</time>
      </trkpt>
      <trkpt lat="42.74817" lon="1.5256">
        <ele>1420</ele>
        <time>2013-11-09T17:43:38Z</time>
      </trkpt>
      <trkpt lat="42.74823" lon="1.52512">
        <ele>1421</ele>
        <time>2013-11-09T17:43:38Z</time>
      </trkpt>
      <trkpt lat="42.74802" lon="1.52397">
        <ele>1431</ele>
        <time>2013-11-09T17:43:38Z</time>
      </trkpt>
      <trkpt lat="42.74728" lon="1.5229">
        <ele>1461</ele>
        <time>2013-11-09T17:43:38Z</time>
      </trkpt>
      <trkpt lat="42.74878" lon="1.52142">
        <ele>1471</ele>
        <time>2013-11-09T17:43:38Z</time>
      </trkpt>
      <trkpt lat="42.75017" lon="1.52118">
        <ele>1437</ele>
        <time>2013-11-09T17:43:38Z</time>
      </trkpt>
      <trkpt lat="42.75165" lon="1.51865">
        <ele>1455</ele>
        <time>2013-11-09T17:43:38Z</time>
      </trkpt>
      <trkpt lat="42.75308" lon="1.51775">
        <ele>1467</ele>
        <time>2013-11-09T17:43:38Z</time>
      </trkpt>
      <trkpt lat="42.75362" lon="1.5177">
        <ele>1462</ele>
        <time>2013-11-09T17:43:38Z</time>
      </trkpt>
      <trkpt lat="42.75377" lon="1.51703">
        <ele>1473</ele>
        <time>2013-11-09T17:43:38Z</time>
      </trkpt>
      <trkpt lat="42.75342" lon="1.5164">
        <ele>1468</ele>
        <time>2013-11-09T17:43:38Z</time>
      </trkpt>
      <trkpt lat="42.75278" lon="1.5155">
        <ele>1440</ele>
        <time>2013-11-09T17:43:38Z</time>
      </trkpt>
      <trkpt lat="42.75232" lon="1.51293">
        <ele>1376</ele>
        <time>2013-11-09T17:43:38Z</time>
      </trkpt>
      <trkpt lat="42.75167" lon="1.51127">
        <ele>1367</ele>
        <time>2013-11-09T17:43:38Z</time>
      </trkpt>
      <trkpt lat="42.75088" lon="1.51083">
        <ele>1397</ele>
        <time>2013-11-09T17:43:38Z</time>
      </trkpt>
      <trkpt lat="42.74743" lon="1.51357">
        <ele>1465</ele>
        <time>2013-11-09T17:43:38Z</time>
      </trkpt>
      <trkpt lat="42.74643" lon="1.51348">
        <ele>1436</ele>
        <time>2013-11-09T17:43:38Z</time>
      </trkpt>
      <trkpt lat="42.7454" lon="1.5127">
        <ele>1402</ele>
        <time>2013-11-09T17:43:38Z</time>
      </trkpt>
      <trkpt lat="42.74447" lon="1.51273">
        <ele>1426</ele>
        <time>2013-11-09T17:43:38Z</time>
      </trkpt>
      <trkpt lat="42.74407" lon="1.51333">
        <ele>1461</ele>
        <time>2013-11-09T17:43:38Z</time>
      </trkpt>
      <trkpt lat="42.74283" lon="1.5138">
        <ele>1461</ele>
        <time>2013-11-09T17:43:38Z</time>
      </trkpt>
      <trkpt lat="42.74105" lon="1.51542">
        <ele>1495</ele>
        <time>2013-11-09T17:43:38Z</time>
      </trkpt>
      <trkpt lat="42.74053" lon="1.51237">
        <ele>1404</ele>
        <time>2013-11-09T17:43:38Z</time>
      </trkpt>
      <trkpt lat="42.7409" lon="1.50997">
        <ele>1386</ele>
        <time>2013-11-09T17:43:38Z</time>
      </trkpt>
      <trkpt lat="42.74133" lon="1.50883">
        <ele>1372</ele>
        <time>2013-11-09T17:43:38Z</time>
      </trkpt>
      <trkpt lat="42.74097" lon="1.50835">
        <ele>1382</ele>
        <time>2013-11-09T17:43:38Z</time>
      </trkpt>
      <trkpt lat="42.73975" lon="1.50838">
        <ele>1405</ele>
        <time>2013-11-09T17:43:38Z</time>
      </trkpt>
      <trkpt lat="42.73925" lon="1.50855">
        <ele>1417</ele>
        <time>2013-11-09T17:43:38Z</time>
      </trkpt>
      <trkpt lat="42.738" lon="1.5081">
        <ele>1396</ele>
        <time>2013-11-09T17:43:38Z</time>
      </trkpt>
      <trkpt lat="42.73758" lon="1.5087">
        <ele>1431</ele>
        <time>2013-11-09T17:43:38Z</time>
      </trkpt>
      <trkpt lat="42.73628" lon="1.50893">
        <ele>1434</ele>
        <time>2013-11-09T17:43:38Z</time>
      </trkpt>
      <trkpt lat="42.7363" lon="1.508">
        <ele>1406</ele>
        <time>2013-11-09T17:43:38Z</time>
      </trkpt>
      <trkpt lat="42.73768" lon="1.50623">
        <ele>1383</ele>
        <time>2013-11-09T17:43:38Z</time>
      </trkpt>
      <trkpt lat="42.73967" lon="1.50383">
        <ele>1406</ele>
        <time>2013-11-09T17:43:38Z</time>
      </trkpt>
      <trkpt lat="42.7403" lon="1.5036">
        <ele>1392</ele>
        <time>2013-11-09T17:43:38Z</time>
      </trkpt>
      <trkpt lat="42.74138" lon="1.50267">
        <ele>1370</ele>
        <time>2013-11-09T17:43:38Z</time>
      </trkpt>
      <trkpt lat="42.74137" lon="1.502">
        <ele>1398</ele>
        <time>2013-11-09T17:43:38Z</time>
      </trkpt>
      <trkpt lat="42.74177" lon="1.50142">
        <ele>1419</ele>
        <time>2013-11-09T17:43:38Z</time>
      </trkpt>
      <trkpt lat="42.74342" lon="1.50145">
        <ele>1371</ele>
        <time>2013-11-09T17:43:38Z</time>
      </trkpt>
      <trkpt lat="42.74402" lon="1.50078">
        <ele>1361</ele>
        <time>2013-11-09T17:43:38Z</time>
      </trkpt>
      <trkpt lat="42.74547" lon="1.49753">
        <ele>1447</ele>
        <time>2013-11-09T17:43:38Z</time>
      </trkpt>
      <trkpt lat="42.74602" lon="1.4976">
        <ele>1444</ele>
        <time>2013-11-09T17:43:38Z</time>
      </trkpt>
      <trkpt lat="42.7471" lon="1.49848">
        <ele>1373</ele>
        <time>2013-11-09T17:43:38Z</time>
      </trkpt>
      <trkpt lat="42.7483" lon="1.49612">
        <ele>1387</ele>
        <time>2013-11-09T17:43:38Z</time>
      </trkpt>
      <trkpt lat="42.74943" lon="1.49503">
        <ele>1415</ele>
        <time>2013-11-09T17:43:38Z</time>
      </trkpt>
      <trkpt lat="42.75045" lon="1.49482">
        <ele>1372</ele>
        <time>2013-11-09T17:43:38Z</time>
      </trkpt>
      <trkpt lat="42.75078" lon="1.49432">
        <ele>1360</ele>
        <time>2013-11-09T17:43:38Z</time>
      </trkpt>
      <trkpt lat="42.75115" lon="1.49197">
        <ele>1407</ele>
        <time>2013-11-09T17:43:38Z</time>
      </trkpt>
      <trkpt lat="42.75228" lon="1.49135">
        <ele>1370</ele>
        <time>2013-11-09T17:43:38Z</time>
      </trkpt>
      <trkpt lat="42.75223" lon="1.49043">
        <ele>1380</ele>
        <time>2013-11-09T17:43:38Z</time>
      </trkpt>
      <trkpt lat="42.75195" lon="1.48937">
        <ele>1393</ele>
        <time>2013-11-09T17:43:38Z</time>
      </trkpt>
      <trkpt lat="42.75223" lon="1.48738">
        <ele>1375</ele>
        <time>2013-11-09T17:43:38Z</time>
      </trkpt>
      <trkpt lat="42.75213" lon="1.48675">
        <ele>1365</ele>
        <time>2013-11-09T17:43:38Z</time>
      </trkpt>
      <trkpt lat="42.75123" lon="1.4859">
        <ele>1380</ele>
        <time>2013-11-09T17:43:38Z</time>
      </trkpt>
      <trkpt lat="42.75023" lon="1.48455">
        <ele>1380</ele>
        <time>2013-11-09T17:43:38Z</time>
      </trkpt>
      <trkpt lat="42.75228" lon="1.48618">
        <ele>1334</ele>
        <time>2013-11-09T17:43:38Z</time>
      </trkpt>
      <trkpt lat="42.7537" lon="1.48735">
        <ele>1288</ele>
        <time>2013-11-09T17:43:38Z</time>
      </trkpt>
      <trkpt lat="42.75392" lon="1.48845">
        <ele>1284</ele>
        <time>2013-11-09T17:43:38Z</time>
      </trkpt>
      <trkpt lat="42.75362" lon="1.49017">
        <ele>1296</ele>
        <time>2013-11-09T17:43:38Z</time>
      </trkpt>
      <trkpt lat="42.75392" lon="1.49058">
        <ele>1272</ele>
        <time>2013-11-09T17:43:38Z</time>
      </trkpt>
      <trkpt lat="42.75392" lon="1.4915">
        <ele>1266</ele>
        <time>2013-11-09T17:43:38Z</time>
      </trkpt>
      <trkpt lat="42.75402" lon="1.49213">
        <ele>1253</ele>
        <time>2013-11-09T17:43:38Z</time>
      </trkpt>
      <trkpt lat="42.7536" lon="1.49308">
        <ele>1254</ele>
        <time>2013-11-09T17:43:38Z</time>
      </trkpt>
      <trkpt lat="42.75305" lon="1.49372">
        <ele>1256</ele>
        <time>2013-11-09T17:43:38Z</time>
      </trkpt>
      <trkpt lat="42.75282" lon="1.49537">
        <ele>1213</ele>
        <time>2013-11-09T17:43:38Z</time>
      </trkpt>
      <trkpt lat="42.75262" lon="1.49683">
        <ele>1193</ele>
        <time>2013-11-09T17:43:38Z</time>
      </trkpt>
      <trkpt lat="42.75255" lon="1.49773">
        <ele>1176</ele>
        <time>2013-11-09T17:43:38Z</time>
      </trkpt>
      <trkpt lat="42.75183" lon="1.49885">
        <ele>1186</ele>
        <time>2013-11-09T17:43:38Z</time>
      </trkpt>
      <trkpt lat="42.75125" lon="1.4999">
        <ele>1170</ele>
        <time>2013-11-09T17:43:38Z</time>
      </trkpt>
      <trkpt lat="42.75047" lon="1.50057">
        <ele>1173</ele>
        <time>2013-11-09T17:43:38Z</time>
      </trkpt>
      <trkpt lat="42.751" lon="1.50118">
        <ele>1141</ele>
        <time>2013-11-09T17:43:38Z</time>
      </trkpt>
      <trkpt lat="42.7521" lon="1.50137">
        <ele>1110</ele>
        <time>2013-11-09T17:43:38Z</time>
      </trkpt>
      <trkpt lat="42.7529" lon="1.5021">
        <ele>1096</ele>
        <time>2013-11-09T17:43:38Z</time>
      </trkpt>
      <trkpt lat="42.75305" lon="1.50278">
        <ele>1096</ele>
        <time>2013-11-09T17:43:38Z</time>
      </trkpt>
      <trkpt lat="42.75392" lon="1.50293">
        <ele>1090</ele>
        <time>2013-11-09T17:43:38Z</time>
      </trkpt>
      <trkpt lat="42.75395" lon="1.50337">
        <ele>1095</ele>
        <time>2013-11-09T17:43:38Z</time>
      </trkpt>
      <trkpt lat="42.75543" lon="1.5034">
        <ele>1093</ele>
        <time>2013-11-09T17:43:38Z</time>
      </trkpt>
      <trkpt lat="42.7555" lon="1.5028">
        <ele>1084</ele>
        <time>2013-11-09T17:43:38Z</time>
      </trkpt>
      <trkpt lat="42.7551" lon="1.50273">
        <ele>1083</ele>
        <time>2013-11-09T17:43:38Z</time>
      </trkpt>
      <trkpt lat="42.75513" lon="1.50253">
        <ele>1079</ele>
        <time>2013-11-09T17:43:38Z</time>
      </trkpt>
      <trkpt lat="42.75457" lon="1.50227">
        <ele>1080</ele>
        <time>2013-11-09T17:43:38Z</time>
      </trkpt>
      <trkpt lat="42.75457" lon="1.50188">
        <ele>1078</ele>
        <time>2013-11-09T17:43:38Z</time>
      </trkpt>
      <trkpt lat="42.755" lon="1.50137">
        <ele>1074</ele>
        <time>2013-11-09T17:43:38Z</time>
      </trkpt>
      <trkpt lat="42.75558" lon="1.50072">
        <ele>1069</ele>
        <time>2013-11-09T17:43:38Z</time>
      </trkpt>
      <trkpt lat="42.75593" lon="1.50037">
        <ele>1065</ele>
        <time>2013-11-09T17:43:38Z</time>
      </trkpt>
      <trkpt lat="42.75647" lon="1.50047">
        <ele>1051</ele>
        <time>2013-11-09T17:43:38Z</time>
      </trkpt>
      <trkpt lat="42.75728" lon="1.50027">
        <ele>1029</ele>
        <time>2013-11-09T17:43:38Z</time>
      </trkpt>
      <trkpt lat="42.75767" lon="1.49975">
        <ele>1016</ele>
        <time>2013-11-09T17:43:38Z</time>
      </trkpt>
      <trkpt lat="42.75825" lon="1.49933">
        <ele>997</ele>
        <time>2013-11-09T17:43:38Z</time>
      </trkpt>
      <trkpt lat="42.75832" lon="1.4988">
        <ele>992</ele>
        <time>2013-11-09T17:43:38Z</time>
      </trkpt>
      <trkpt lat="42.75828" lon="1.49817">
        <ele>992</ele>
        <time>2013-11-09T17:43:38Z</time>
      </trkpt>
      <trkpt lat="42.75892" lon="1.49613">
        <ele>967</ele>
        <time>2013-11-09T17:43:38Z</time>
      </trkpt>
      <trkpt lat="42.75977" lon="1.49413">
        <ele>934</ele>
        <time>2013-11-09T17:43:38Z</time>
      </trkpt>
      <trkpt lat="42.76005" lon="1.49278">
        <ele>915</ele>
        <time>2013-11-09T17:43:38Z</time>
      </trkpt>
      <trkpt lat="42.76005" lon="1.49182">
        <ele>909</ele>
        <time>2013-11-09T17:43:38Z</time>
      </trkpt>
      <trkpt lat="42.76052" lon="1.49057">
        <ele>901</ele>
        <time>2013-11-09T17:43:38Z</time>
      </trkpt>
      <trkpt lat="42.76122" lon="1.49002">
        <ele>906</ele>
        <time>2013-11-09T17:43:38Z</time>
      </trkpt>
      <trkpt lat="42.76162" lon="1.48912">
        <ele>906</ele>
        <time>2013-11-09T17:43:38Z</time>
      </trkpt>
      <trkpt lat="42.76187" lon="1.48898">
        <ele>908</ele>
        <time>2013-11-09T17:43:38Z</time>
      </trkpt>
      <trkpt lat="42.76185" lon="1.48818">
        <ele>886</ele>
        <time>2013-11-09T17:43:38Z</time>
      </trkpt>
      <trkpt lat="42.76172" lon="1.48768">
        <ele>872</ele>
        <time>2013-11-09T17:43:38Z</time>
      </trkpt>
      <trkpt lat="42.76128" lon="1.48728">
        <ele>872</ele>
        <time>2013-11-09T17:43:38Z</time>
      </trkpt>
      <trkpt lat="42.76102" lon="1.486">
        <ele>846</ele>
        <time>2013-11-09T17:43:38Z</time>
      </trkpt>
      <trkpt lat="42.76055" lon="1.4851">
        <ele>841</ele>
        <time>2013-11-09T17:43:38Z</time>
      </trkpt>
      <trkpt lat="42.76002" lon="1.48447">
        <ele>839</ele>
        <time>2013-11-09T17:43:38Z</time>
      </trkpt>
      <trkpt lat="42.75942" lon="1.48295">
        <ele>805</ele>
        <time>2013-11-09T17:43:38Z</time>
      </trkpt>
      <trkpt lat="42.75885" lon="1.48065">
        <ele>772</ele>
        <time>2013-11-09T17:43:38Z</time>
      </trkpt>
      <trkpt lat="42.75868" lon="1.47968">
        <ele>768</ele>
        <time>2013-11-09T17:43:38Z</time>
      </trkpt>
      <trkpt lat="42.75883" lon="1.4788">
        <ele>760</ele>
        <time>2013-11-09T17:43:38Z</time>
      </trkpt>
      <trkpt lat="42.75847" lon="1.47743">
        <ele>761</ele>
        <time>2013-11-09T17:43:38Z</time>
      </trkpt>
      <trkpt lat="42.75952" lon="1.4783">
        <ele>750</ele>
        <time>2013-11-09T17:43:38Z</time>
      </trkpt>
      <trkpt lat="42.7603" lon="1.48002">
        <ele>746</ele>
        <time>2013-11-09T17:43:38Z</time>
      </trkpt>
      <trkpt lat="42.76068" lon="1.4798">
        <ele>746</ele>
        <time>2013-11-09T17:43:38Z</time>
      </trkpt>
      <trkpt lat="42.76088" lon="1.4799">
        <ele>745</ele>
        <time>2013-11-09T17:43:38Z</time>
      </trkpt>
      <trkpt lat="42.76065" lon="1.48068">
        <ele>744</ele>
        <time>2013-11-09T17:43:38Z</time>
      </trkpt>
      <trkpt lat="42.7608" lon="1.4813">
        <ele>745</ele>
        <time>2013-11-09T17:43:38Z</time>
      </trkpt>
      <trkpt lat="42.76135" lon="1.48175">
        <ele>744</ele>
        <time>2013-11-09T17:43:38Z</time>
      </trkpt>
      <trkpt lat="42.76218" lon="1.48248">
        <ele>738</ele>
        <time>2013-11-09T17:43:38Z</time>
      </trkpt>
      <trkpt lat="42.76298" lon="1.48268">
        <ele>737</ele>
        <time>2013-11-09T17:43:38Z</time>
      </trkpt>
      <trkpt lat="42.76345" lon="1.48305">
        <ele>737</ele>
        <time>2013-11-09T17:43:38Z</time>
      </trkpt>
    </trkseg>
  </trk>
</gpx>